Tracking 29933 objects as of 2-Dec-2024
HD Live streaming from Space Station
objects crossing your sky now

STARLINK-31181

Track STARLINK-31181 now!
10-day predictions
STARLINK-31181 is classified as:


NORAD ID: 58746
Int'l Code: 2024-005U
Perigee: 494.5 km
Apogee: 495.9 km
Inclination: 43.0 °
Period: 94.4 minutes
Semi major axis: 6866 km
RCS: Unknown
Launch date: January 7, 2024
Source: United States (US)
Launch site: AIR FORCE EASTERN TEST RANGE (AFETR)
Your satellite tracking list
Your tracking list is empty




NASA's NSSDC Master Catalog

Two Line Element Set (TLE):
1 58746U 24005U   24336.81523586  .00001418  00000-0  63998-4 0  9990
2 58746  42.9999 163.9903 0001032 276.6532  83.4201 15.25920803 51461
Source of the keplerian elements: AFSPC